{"data":{"norad_id":65262,"intl_designator":"2025-180D","name":"2025-180D","alt_names":[],"object_type":"PAYLOAD","status":"ACTIVE","operator":null,"country":"TBD","launch_date":"2025-08-19","launch_site_code":"JSC","launch_vehicle":null,"mission":null,"orbit_class":"UNKNOWN","rcs_meters":null,"size_class":null,"mass_kg":null,"dimensions":null,"purposes":[],"wikipedia_slug":null,"has_3d_model":false,"image_url":null,"decayed_at":null,"tle_current":{"epoch":"2026-05-14T20:23:18.400992Z","epoch_age_seconds":962227,"freshness":"AGED","line1":"1 65262U 25180D   26134.84951853  .00002562  00000+0  13643-3 0  9990","line2":"2 65262  97.5213 262.3824 0015573  78.2651 282.0838 15.15141877 40619","mean_motion":15.15141877,"eccentricity":0.0015573,"inclination_deg":97.5213,"raan_deg":262.3824,"arg_perigee_deg":78.2651,"mean_anomaly_deg":282.0838,"bstar":0.00013643,"rev_number":4061,"period_min":95.040604570393,"perigee_km":509.80454527139,"apogee_km":531.29118915882,"semimajor_km":6898.6848672151,"source":"CELESTRAK","updated_at":"2026-05-25T13:38:05.262598Z"}}}